QPF
0.01 0.01 0.02 0.02 0.02 0.02 0.02 0.02 0.01 0.00 0.01 0.00 0.00 0.00 0.00 0.00 0.00 0.00 0.00 0.00 0.00 0.00 0.00 0.00 0.00 0.01 0.02 0.01 0.01 0.01 0.01 0.02 0.02 0.03 0.04 0.04 0.04 0.04 0.04 0.04 0.04 0.05 0.05 0.05
0.00 0.01 0.01 0.01 0.01 0.01 0.01 0.01 0.01 0.01 0.00 0.00 0.00 0.00 0.00 0.00 0.00 0.00 0.00 0.00 0.00 0.00 0.00 0.00 0.00 0.01 0.01 0.02 0.02 0.01 0.01 0.02 0.03 0.03 0.03 0.03 0.04 0.03 0.03 0.04 0.04 0.05 0.05 0.05
0.00 0.02 0.01 0.01 0.01 0.01 0.01 0.01 0.01 0.01 0.01 0.00 0.00 0.00 0.00 0.00 0.00 0.00 0.00 0.00 0.00 0.00 0.00 0.00 0.00 0.00 0.01 0.01 0.02 0.02 0.01 0.02 0.02 0.03 0.03 0.04 0.04 0.03 0.03 0.02 0.02 0.04 0.05 0.05
0.01 0.01 0.01 0.01 0.01 0.00 0.01 0.01 0.01 0.01 0.01 0.01 0.01 0.01 0.00 0.00 0.01 0.01 0.01 0.00 0.00 0.00 0.00 0.00 0.00 0.00 0.00 0.01 0.01 0.02 0.02 0.02 0.02 0.03 0.03 0.04 0.05 0.04 0.03 0.03 0.03 0.02 0.03 0.05
0.01 0.00 0.00 0.00 0.01 0.01 0.01 0.01 0.01 0.01 0.01 0.01 0.01 0.01 0.00 0.00 0.00 0.01 0.01 0.01 0.01 0.00 0.00 0.00 0.00 0.00 0.00 0.00 0.00 0.01 0.01 0.02 0.02 0.03 0.03 0.03 0.05 0.05 0.05 0.04 0.03 0.03 0.03 0.04
0.00 0.00 0.00 0.01 0.01 0.01 0.01 0.01 0.01 0.02 0.02 0.02 0.01 0.01 0.00 0.00 0.00 0.00 0.01 0.01 0.01 0.01 0.00 0.00 0.00 0.00 0.00 0.00 0.00 0.00 0.01 0.01 0.01 0.01 0.02 0.02 0.03 0.04 0.04 0.04 0.05 0.04 0.03 0.03
0.00 0.00 0.00 0.00 0.01 0.01 0.02 0.02 0.02 0.03 0.03 0.01 0.01 0.00 0.00 0.00 0.00 0.00 0.01 0.01 0.01 0.01 0.00 0.00 0.00 0.00 0.00 0.00 0.00 0.00 0.00 0.01 0.01 0.01 0.01 0.01 0.01 0.02 0.03 0.03 0.04 0.05 0.05 0.05
0.00 0.00 0.00 0.00 0.00 0.00 0.01 0.01 0.01 0.01 0.01 0.00 0.00 0.00 0.00 0.00 0.00 0.00 0.01 0.01 0.01 0.01 0.01 0.00 0.00 0.00 0.00 0.00 0.00 0.00 0.00 0.00 0.01 0.01 0.00 0.00 0.00 0.01 0.01 0.02 0.02 0.03 0.03 0.04
0.00 0.00 0.00 0.00 0.00 0.00 0.00 0.01 0.00 0.01 0.01 0.00 0.00 0.00 0.00 0.00 0.00 0.00 0.01 0.01 0.01 0.01 0.01 0.01 0.00 0.00 0.00 0.00 0.00 0.00 0.00 0.00 0.00 0.01 0.01 0.00 0.00 0.00 0.00 0.01 0.01 0.02 0.02 0.03
0.01 0.00 0.00 0.00 0.00 0.00 0.00 0.01 0.01 0.02 0.01 0.01 0.00 0.00 0.00 0.00 0.00 0.00 0.01 0.01 0.01 0.01 0.01 0.01 0.00 0.00 0.00 0.00 0.00 0.00 0.00 0.00 0.00 0.00 0.01 0.01 0.00 0.00 0.00 0.00 0.00 0.01 0.01 0.01
0.00 0.00 0.00 0.00 0.00 0.00 0.00 0.01 0.01 0.01 0.01 0.01 0.00 0.00 0.00 0.00 0.00 0.00 0.01 0.01 0.01 0.01 0.01 0.01 0.01 0.01 0.00 0.00 0.00 0.00 0.00 0.00 0.00 0.00 0.01 0.01 0.00 0.00 0.00 0.00 0.01 0.01 0.01 0.01
0.01 0.01 0.00 0.00 0.00 0.00 0.00 0.00 0.01 0.01 0.01 0.01 0.01 0.00 0.00 0.00 0.00 0.00 0.00 0.01 0.01 0.01 0.01 0.01 0.01 0.01 0.01 0.01 0.00 0.00 0.00 0.00 0.00 0.01 0.01 0.01 0.01 0.01 0.01 0.01 0.01 0.02 0.02 0.02
0.01 0.02 0.01 0.01 0.00 0.00 0.00 0.00 0.01 0.01 0.02 0.01 0.01 0.00 0.00 0.00 0.00 0.00 0.00 0.00 0.01 0.01 0.00 0.00 0.01 0.01 0.01 0.01 0.01 0.01 0.01 0.01 0.01 0.01 0.01 0.01 0.01 0.01 0.01 0.02 0.02 0.02 0.02 0.02
0.02 0.02 0.01 0.01 0.00 0.00 0.00 0.00 0.00 0.01 0.02 0.01 0.00 0.00 0.00 0.01 0.01 0.01 0.01 0.01 0.01 0.01 0.00 0.00 0.00 0.01 0.01 0.01 0.01 0.01 0.01 0.00 0.00 0.01 0.01 0.01 0.01 0.01 0.02 0.02 0.02 0.02 0.03 0.02
0.01 0.02 0.01 0.00 0.00 0.00 0.00 0.00 0.00 0.01 0.01 0.01 0.01 0.01 0.01 0.01 0.01 0.01 0.01 0.01 0.00 0.01 0.01 0.01 0.00 0.00 0.00 0.00 0.00 0.00 0.00 0.00 0.00 0.01 0.01 0.01 0.01 0.01 0.01 0.02 0.02 0.02 0.02 0.02
0.01 0.01 0.01 0.01 0.00 0.00 0.00 0.00 0.00 0.01 0.01 0.01 0.01 0.01 0.01 0.01 0.01 0.01 0.01 0.01 0.01 0.01 0.01 0.01 0.00 0.00 0.00 0.00 0.00 0.00 0.00 0.00 0.00 0.00 0.01 0.01 0.01 0.01 0.01 0.01 0.01 0.01 0.01 0.01
0.02 0.02 0.02 0.01 0.01 0.01 0.01 0.00 0.00 0.01 0.01 0.01 0.01 0.00 0.00 0.00 0.00 0.00 0.00 0.01 0.01 0.01 0.01 0.01 0.00 0.00 0.00 0.00 0.00 0.00 0.00 0.00 0.00 0.00 0.00 0.00 0.00 0.00 0.01 0.01 0.01 0.01 0.01 0.01
0.02 0.02 0.02 0.02 0.02 0.02 0.01 0.00 0.00 0.00 0.00 0.01 0.01 0.00 0.00 0.00 0.00 0.00 0.00 0.00 0.01 0.01 0.01 0.01 0.00 0.00 0.00 0.00 0.00 0.00 0.00 0.00 0.00 0.00 0.00 0.00 0.00 0.00 0.00 0.00 0.00 0.00 0.00 0.00
0.01 0.02 0.03 0.03 0.02 0.01 0.00 0.00 0.00 0.00 0.00 0.00 0.00 0.00 0.00 0.00 0.00 0.00 0.00 0.00 0.00 0.00 0.00 0.00 0.00 0.00 0.00 0.00 0.00 0.00 0.00 0.00 0.00 0.00 0.00 0.00 0.00 0.00 0.00 0.00 0.00 0.00 0.00 0.00
0.01 0.02 0.03 0.04 0.03 0.01 0.00 0.00 0.00 0.00 0.00 0.00 0.00 0.00 0.00 0.00 0.00 0.00 0.00 0.00 0.00 0.00 0.00 0.00 0.00 0.00 0.00 0.00 0.00 0.00 0.00 0.00 0.00 0.00 0.00 0.00 0.00 0.00 0.00 0.00 0.00 0.00 0.00 0.00
0.01 0.02 0.03 0.03 0.02 0.01 0.00 0.00 0.00 0.01 0.00 0.00 0.00 0.00 0.00 0.00 0.00 0.00 0.00 0.00 0.00 0.00 0.00 0.00 0.00 0.00 0.00 0.00 0.00 0.00 0.00 0.00 0.00 0.00 0.00 0.00 0.00 0.00 0.00 0.00 0.00 0.00 0.00 0.00
0.00 0.01 0.01 0.01 0.02 0.01 0.00 0.00 0.00 0.01 0.00 0.00 0.00 0.00 0.00 0.00 0.00 0.00 0.00 0.01 0.00 0.00 0.00 0.00 0.00 0.00 0.01 0.01 0.01 0.01 0.01 0.01 0.00 0.00 0.00 0.00 0.00 0.00 0.00 0.00 0.00 0.00 0.00 0.00
0.00 0.01 0.01 0.01 0.01 0.00 0.00 0.00 0.01 0.01 0.01 0.01 0.01 0.01 0.01 0.01 0.01 0.01 0.01 0.01 0.01 0.01 0.01 0.01 0.01 0.01 0.01 0.01 0.01 0.01 0.01 0.01 0.01 0.01 0.00 0.00 0.00 0.00 0.00 0.00 0.00 0.00 0.00 0.00
0.00 0.00 0.01 0.01 0.00 0.00 0.01 0.01 0.01 0.01 0.01 0.01 0.01 0.01 0.01 0.01 0.01 0.01 0.01 0.01 0.01 0.01 0.01 0.01 0.01 0.01 0.01 0.01 0.01 0.01 0.01 0.01 0.01 0.01 0.00 0.00 0.00 0.00 0.00 0.00 0.00 0.00 0.00 0.00
0.01 0.01 0.01 0.01 0.01 0.01 0.01 0.01 0.01 0.01 0.01 0.01 0.01 0.01 0.01 0.01 0.01 0.01 0.01 0.01 0.01 0.01 0.01 0.01 0.01 0.01 0.01 0.01 0.01 0.01 0.01 0.01 0.01 0.01 0.01 0.00 0.00 0.00 0.00 0.00 0.00 0.00 0.00 0.00
0.01 0.01 0.01 0.01 0.01 0.01 0.01 0.01 0.01 0.01 0.01 0.01 0.01 0.01 0.01 0.01 0.01 0.01 0.01 0.01 0.01 0.01 0.01 0.01 0.01 0.01 0.01 0.01 0.01 0.01 0.01 0.01 0.01 0.01 0.00 0.00 0.00 0.00 0.00 0.00 0.00 0.00 0.00 0.00
MSLP
1017.19 1017.19 1017.35 1017.65 1018.00 1018.33 1018.57 1018.65 1018.58 1018.37 1018.10 1017.84 1017.71 1017.76 1018.05 1018.60 1019.37 1020.28 1021.27 1022.24 1023.14 1023.90 1024.50 1024.95 1025.26 1025.44 1025.54 1025.56 1025.52 1025.44 1025.33 1025.21 1025.09 1025.02 1024.99 1025.04 1025.17 1025.36 1025.58 1025.79 1025.95 1026.02 1025.97 1025.81
1017.53 1017.60 1017.85 1018.20 1018.60 1018.94 1019.15 1019.18 1019.02 1018.70 1018.31 1017.94 1017.69 1017.64 1017.86 1018.36 1019.11 1020.03 1021.05 1022.08 1023.04 1023.87 1024.54 1025.05 1025.41 1025.64 1025.77 1025.82 1025.81 1025.75 1025.66 1025.55 1025.44 1025.37 1025.34 1025.39 1025.51 1025.69 1025.91 1026.13 1026.31 1026.42 1026.43 1026.33
1018.05 1018.23 1018.56 1018.98 1019.40 1019.74 1019.90 1019.85 1019.57 1019.13 1018.60 1018.10 1017.73 1017.58 1017.72 1018.17 1018.89 1019.82 1020.86 1021.92 1022.92 1023.80 1024.53 1025.08 1025.49 1025.76 1025.93 1026.02 1026.05 1026.03 1025.98 1025.91 1025.83 1025.78 1025.76 1025.80 1025.91 1026.07 1026.27 1026.48 1026.66 1026.79 1026.84 1026.79
1018.71 1019.01 1019.43 1019.91 1020.34 1020.64 1020.74 1020.58 1020.17 1019.59 1018.91 1018.27 1017.77 1017.53 1017.60 1018.00 1018.70 1019.63 1020.68 1021.77 1022.81 1023.73 1024.48 1025.08 1025.52 1025.83 1026.04 1026.17 1026.25 1026.29 1026.30 1026.28 1026.25 1026.23 1026.23 1026.27 1026.36 1026.48 1026.65 1026.83 1027.00 1027.12 1027.19 1027.19
1019.39 1019.81 1020.32 1020.84 1021.28 1021.53 1021.54 1021.26 1020.72 1019.98 1019.16 1018.39 1017.78 1017.45 1017.45 1017.82 1018.51 1019.44 1020.52 1021.63 1022.70 1023.65 1024.44 1025.06 1025.53 1025.87 1026.12 1026.31 1026.44 1026.55 1026.62 1026.66 1026.69 1026.71 1026.73 1026.76 1026.83 1026.92 1027.05 1027.18 1027.32 1027.43 1027.50 1027.52
1019.97 1020.51 1021.09 1021.64 1022.07 1022.27 1022.19 1021.80 1021.12 1020.26 1019.31 1018.43 1017.73 1017.33 1017.30 1017.65 1018.33 1019.28 1020.38 1021.52 1022.62 1023.60 1024.42 1025.07 1025.56 1025.94 1026.23 1026.45 1026.64 1026.80 1026.93 1027.04 1027.12 1027.17 1027.21 1027.25 1027.29 1027.35 1027.44 1027.53 1027.62 1027.71 1027.77 1027.79
1020.36 1020.98 1021.62 1022.19 1022.60 1022.76 1022.60 1022.12 1021.35 1020.38 1019.35 1018.39 1017.64 1017.20 1017.15 1017.50 1018.20 1019.16 1020.29 1021.47 1022.60 1023.61 1024.46 1025.13 1025.66 1026.06 1026.38 1026.64 1026.87 1027.07 1027.25 1027.40 1027.52 1027.60 1027.66 1027.69 1027.72 1027.75 1027.79 1027.85 1027.91 1027.96 1028.01 1028.02
1020.52 1021.18 1021.85 1022.44 1022.84 1022.96 1022.76 1022.22 1021.39 1020.37 1019.29 1018.30 1017.53 1017.09 1017.04 1017.40 1018.12 1019.11 1020.27 1021.48 1022.64 1023.68 1024.57 1025.27 1025.83 1026.25 1026.60 1026.88 1027.14 1027.37 1027.57 1027.75 1027.89 1027.98 1028.04 1028.07 1028.08 1028.09 1028.11 1028.13 1028.17 1028.20 1028.23 1028.24
1020.48 1021.16 1021.85 1022.43 1022.82 1022.93 1022.70 1022.14 1021.30 1020.27 1019.20 1018.21 1017.46 1017.03 1017.00 1017.38 1018.12 1019.13 1020.31 1021.55 1022.74 1023.82 1024.73 1025.48 1026.06 1026.52 1026.89 1027.20 1027.47 1027.71 1027.92 1028.10 1028.23 1028.33 1028.38 1028.39 1028.39 1028.38 1028.38 1028.39 1028.41 1028.43 1028.45 1028.46
1020.36 1021.04 1021.71 1022.28 1022.66 1022.76 1022.53 1021.97 1021.15 1020.15 1019.11 1018.16 1017.44 1017.05 1017.05 1017.44 1018.19 1019.21 1020.40 1021.65 1022.86 1023.97 1024.93 1025.72 1026.35 1026.85 1027.25 1027.58 1027.87 1028.11 1028.31 1028.47 1028.59 1028.66 1028.69 1028.68 1028.66 1028.63 1028.62 1028.62 1028.64 1028.66 1028.68 1028.69
1020.33 1020.98 1021.61 1022.15 1022.50 1022.58 1022.35 1021.81 1021.01 1020.06 1019.07 1018.17 1017.50 1017.14 1017.15 1017.55 1018.29 1019.30 1020.48 1021.73 1022.97 1024.11 1025.11 1025.95 1026.65 1027.21 1027.66 1028.02 1028.32 1028.57 1028.76 1028.90 1028.99 1029.02 1029.01 1028.98 1028.93 1028.89 1028.86 1028.86 1028.87 1028.90 1028.92 1028.92
1020.53 1021.12 1021.70 1022.18 1022.47 1022.51 1022.25 1021.71 1020.93 1020.01 1019.06 1018.21 1017.58 1017.24 1017.26 1017.65 1018.37 1019.36 1020.52 1021.76 1023.00 1024.18 1025.24 1026.15 1026.92 1027.56 1028.08 1028.50 1028.84 1029.10 1029.29 1029.40 1029.46 1029.45 1029.41 1029.33 1029.25 1029.18 1029.14 1029.12 1029.12 1029.14 1029.16 1029.15
1021.03 1021.54 1022.03 1022.42 1022.61 1022.57 1022.25 1021.68 1020.89 1019.99 1019.07 1018.25 1017.65 1017.33 1017.34 1017.71 1018.40 1019.35 1020.48 1021.72 1022.97 1024.18 1025.30 1026.30 1027.16 1027.89 1028.51 1029.00 1029.39 1029.69 1029.88 1029.99 1030.02 1029.98 1029.89 1029.78 1029.66 1029.55 1029.47 1029.42 1029.40 1029.39 1029.39 1029.36
1021.77 1022.20 1022.57 1022.82 1022.88 1022.72 1022.31 1021.66 1020.84 1019.93 1019.03 1018.24 1017.66 1017.35 1017.37 1017.73 1018.39 1019.31 1020.41 1021.63 1022.90 1024.15 1025.33 1026.41 1027.37 1028.22 1028.93 1029.51 1029.97 1030.31 1030.53 1030.64 1030.65 1030.59 1030.47 1030.31 1030.15 1029.99 1029.86 1029.77 1029.70 1029.65 1029.60 1029.53
1022.60 1022.92 1023.16 1023.24 1023.15 1022.83 1022.29 1021.57 1020.70 1019.78 1018.90 1018.15 1017.60 1017.33 1017.37 1017.73 1018.38 1019.28 1020.37 1021.58 1022.86 1024.14 1025.38 1026.55 1027.60 1028.54 1029.35 1030.02 1030.56 1030.95 1031.20 1031.32 1031.33 1031.25 1031.11 1030.91 1030.70 1030.50 1030.31 1030.15 1030.01 1029.89 1029.77 1029.64
1023.30 1023.50 1023.58 1023.50 1023.22 1022.75 1022.10 1021.29 1020.40 1019.49 1018.66 1017.97 1017.50 1017.30 1017.39 1017.79 1018.46 1019.37 1020.46 1021.67 1022.96 1024.27 1025.55 1026.77 1027.89 1028.91 1029.79 1030.53 1031.12 1031.55 1031.84 1031.98 1032.00 1031.91 1031.75 1031.53 1031.28 1031.03 1030.78 1030.55 1030.33 1030.12 1029.91 1029.68
1023.62 1023.70 1023.63 1023.39 1022.96 1022.37 1021.63 1020.79 1019.91 1019.07 1018.33 1017.76 1017.42 1017.34 1017.53 1018.01 1018.74 1019.68 1020.78 1022.00 1023.29 1024.60 1025.90 1027.13 1028.28 1029.33 1030.24 1031.01 1031.63 1032.09 1032.39 1032.55 1032.57 1032.49 1032.32 1032.09 1031.82 1031.53 1031.22 1030.92 1030.61 1030.31 1030.00 1029.68
1023.40 1023.37 1023.17 1022.81 1022.29 1021.63 1020.88 1020.07 1019.28 1018.57 1017.99 1017.61 1017.46 1017.55 1017.90 1018.49 1019.30 1020.29 1021.41 1022.64 1023.91 1025.20 1026.46 1027.67 1028.79 1029.81 1030.71 1031.46 1032.06 1032.51 1032.81 1032.97 1033.00 1032.92 1032.76 1032.53 1032.25 1031.93 1031.58 1031.22 1030.84 1030.44 1030.03 1029.60
1022.61 1022.51 1022.24 1021.83 1021.28 1020.64 1019.95 1019.26 1018.63 1018.13 1017.78 1017.64 1017.72 1018.02 1018.55 1019.28 1020.18 1021.22 1022.36 1023.56 1024.79 1026.02 1027.21 1028.34 1029.38 1030.32 1031.15 1031.83 1032.38 1032.79 1033.06 1033.20 1033.22 1033.15 1033.00 1032.77 1032.50 1032.17 1031.80 1031.40 1030.96 1030.49 1029.99 1029.47
1021.43 1021.30 1021.03 1020.64 1020.15 1019.60 1019.05 1018.56 1018.16 1017.91 1017.83 1017.95 1018.28 1018.80 1019.50 1020.36 1021.34 1022.41 1023.54 1024.69 1025.85 1026.98 1028.06 1029.07 1029.99 1030.82 1031.52 1032.11 1032.56 1032.90 1033.11 1033.22 1033.23 1033.16 1033.01 1032.80 1032.54 1032.22 1031.84 1031.42 1030.94 1030.41 1029.85 1029.26
1020.15 1020.06 1019.85 1019.55 1019.19 1018.81 1018.46 1018.20 1018.06 1018.07 1018.26 1018.63 1019.18 1019.88 1020.73 1021.67 1022.69 1023.76 1024.83 1025.91 1026.96 1027.96 1028.90 1029.76 1030.54 1031.22 1031.79 1032.25 1032.60 1032.85 1032.99 1033.05 1033.03 1032.95 1032.80 1032.61 1032.36 1032.05 1031.68 1031.24 1030.74 1030.18 1029.58 1028.93
1019.15 1019.16 1019.07 1018.91 1018.72 1018.54 1018.41 1018.38 1018.48 1018.73 1019.14 1019.71 1020.41 1021.24 1022.15 1023.12 1024.12 1025.12 1026.11 1027.06 1027.97 1028.83 1029.62 1030.33 1030.96 1031.49 1031.93 1032.27 1032.51 1032.66 1032.73 1032.73 1032.67 1032.56 1032.41 1032.21 1031.97 1031.66 1031.30 1030.86 1030.35 1029.77 1029.13 1028.45
1018.78 1018.93 1019.00 1019.01 1019.00 1019.00 1019.07 1019.22 1019.50 1019.92 1020.47 1021.14 1021.91 1022.76 1023.66 1024.58 1025.49 1026.38 1027.24 1028.05 1028.81 1029.51 1030.15 1030.72 1031.21 1031.62 1031.94 1032.17 1032.31 1032.38 1032.37 1032.31 1032.20 1032.05 1031.87 1031.66 1031.40 1031.08 1030.70 1030.25 1029.73 1029.14 1028.49 1027.79
1019.29 1019.61 1019.84 1020.00 1020.13 1020.27 1020.46 1020.73 1021.10 1021.58 1022.17 1022.84 1023.59 1024.37 1025.18 1025.97 1026.74 1027.48 1028.17 1028.82 1029.42 1029.98 1030.48 1030.93 1031.31 1031.62 1031.85 1031.99 1032.06 1032.05 1031.98 1031.85 1031.68 1031.48 1031.25 1030.99 1030.69 1030.34 1029.93 1029.46 1028.91 1028.30 1027.64 1026.92
1020.74 1021.21 1021.57 1021.84 1022.05 1022.25 1022.48 1022.76 1023.12 1023.57 1024.09 1024.68 1025.32 1025.97 1026.62 1027.24 1027.84 1028.40 1028.92 1029.40 1029.86 1030.28 1030.68 1031.02 1031.32 1031.55 1031.71 1031.80 1031.80 1031.73 1031.59 1031.40 1031.16 1030.89 1030.59 1030.25 1029.89 1029.48 1029.02 1028.50 1027.92 1027.29 1026.60 1025.87
1023.01 1023.59 1024.01 1024.31 1024.52 1024.69 1024.86 1025.06 1025.33 1025.66 1026.06 1026.51 1026.99 1027.47 1027.94 1028.39 1028.80 1029.19 1029.55 1029.89 1030.21 1030.52 1030.82 1031.08 1031.31 1031.49 1031.60 1031.63 1031.58 1031.45 1031.25 1030.99 1030.67 1030.31 1029.92 1029.50 1029.05 1028.56 1028.03 1027.45 1026.83 1026.15 1025.44 1024.70
Thickness
5560 5565 5564 5562 5559 5561 5561 5562 5564 5558 5544 5546 5554 5555 5550 5539 5535 5535 5532 5527 5523 5519 5516 5512 5509 5507 5505 5504 5503 5502 5500 5499 5499 5499 5498 5498 5497 5496 5495 5496 5497 5499 5501 5504
5555 5550 5543 5539 5541 5544 5547 5549 5552 5545 5533 5535 5541 5545 5542 5534 5528 5526 5523 5519 5514 5510 5505 5501 5498 5496 5494 5492 5491 5489 5488 5486 5485 5484 5483 5483 5482 5481 5481 5482 5483 5485 5487 5490
5549 5534 5527 5530 5532 5535 5535 5538 5538 5533 5527 5523 5527 5546 5538 5525 5517 5513 5511 5508 5504 5501 5497 5492 5488 5485 5482 5480 5477 5476 5475 5473 5472 5471 5470 5469 5469 5468 5469 5469 5470 5471 5473 5476
5526 5518 5519 5522 5521 5523 5528 5517 5516 5515 5522 5530 5520 5541 5543 5522 5513 5507 5504 5500 5496 5490 5486 5482 5478 5474 5470 5467 5464 5462 5461 5460 5459 5458 5458 5458 5458 5458 5457 5457 5458 5459 5460 5462
5513 5506 5509 5511 5508 5507 5508 5499 5500 5502 5506 5509 5508 5514 5538 5509 5511 5507 5500 5493 5486 5480 5475 5471 5466 5462 5458 5454 5452 5450 5449 5447 5446 5445 5445 5445 5445 5444 5443 5443 5444 5446 5447 5449
5497 5492 5493 5495 5491 5490 5487 5489 5488 5488 5495 5502 5500 5504 5528 5515 5506 5501 5491 5482 5475 5468 5462 5458 5454 5449 5445 5442 5439 5438 5437 5435 5433 5432 5431 5431 5431 5431 5430 5431 5432 5433 5434 5436
5496 5487 5480 5479 5483 5480 5482 5493 5501 5501 5499 5508 5475 5482 5505 5496 5484 5479 5473 5468 5461 5455 5450 5446 5441 5437 5434 5430 5428 5426 5424 5423 5421 5420 5418 5418 5417 5417 5418 5418 5419 5420 5421 5423
5503 5497 5474 5470 5474 5477 5474 5481 5493 5499 5505 5504 5466 5481 5496 5471 5461 5456 5451 5448 5445 5442 5438 5433 5429 5425 5422 5418 5416 5414 5413 5411 5409 5407 5405 5404 5404 5404 5404 5404 5405 5406 5407 5409
5499 5489 5460 5456 5456 5463 5465 5467 5462 5467 5452 5464 5487 5480 5476 5459 5453 5447 5442 5437 5432 5429 5424 5420 5416 5412 5409 5407 5404 5402 5401 5399 5397 5395 5393 5393 5393 5392 5391 5391 5391 5392 5393 5395
5478 5472 5455 5445 5446 5443 5448 5450 5452 5457 5464 5476 5482 5477 5482 5459 5452 5442 5435 5429 5422 5415 5411 5407 5402 5399 5396 5394 5392 5390 5389 5387 5385 5383 5382 5382 5381 5380 5379 5379 5379 5380 5381 5382
5459 5462 5448 5440 5440 5446 5435 5434 5440 5445 5445 5463 5473 5482 5462 5452 5442 5434 5425 5417 5411 5404 5399 5394 5389 5386 5384 5382 5380 5378 5376 5374 5373 5371 5370 5370 5369 5367 5367 5366 5367 5367 5368 5370
5444 5453 5450 5438 5420 5415 5424 5431 5432 5440 5436 5432 5451 5463 5435 5429 5422 5416 5410 5403 5397 5391 5385 5381 5377 5373 5371 5370 5368 5366 5364 5362 5361 5359 5359 5358 5357 5356 5355 5355 5355 5355 5356 5358
5431 5435 5444 5444 5424 5405 5407 5407 5406 5409 5417 5423 5436 5452 5417 5409 5405 5400 5395 5391 5385 5378 5374 5370 5366 5363 5360 5358 5356 5354 5352 5350 5348 5347 5347 5346 5345 5345 5345 5345 5344 5345 5345 5347
5423 5422 5435 5451 5445 5422 5405 5396 5390 5395 5413 5422 5426 5437 5422 5407 5397 5391 5385 5379 5373 5368 5364 5360 5357 5354 5350 5347 5344 5343 5341 5339 5337 5336 5336 5335 5334 5334 5333 5333 5333 5333 5334 5335
5413 5415 5408 5410 5403 5398 5399 5395 5382 5381 5403 5412 5423 5412 5413 5399 5387 5379 5372 5367 5362 5359 5355 5351 5347 5344 5341 5337 5333 5331 5329 5328 5326 5325 5325 5324 5323 5322 5321 5321 5322 5322 5322 5323
5399 5400 5391 5392 5388 5381 5381 5388 5382 5376 5380 5385 5387 5393 5390 5380 5371 5364 5360 5355 5353 5351 5347 5343 5338 5334 5331 5327 5323 5320 5318 5317 5316 5315 5314 5313 5312 5311 5310 5310 5310 5310 5311 5312
5389 5384 5389 5403 5376 5372 5396 5390 5376 5371 5366 5370 5381 5389 5374 5365 5361 5357 5352 5346 5343 5341 5337 5333 5329 5325 5321 5317 5313 5311 5309 5307 5306 5304 5303 5301 5300 5300 5299 5299 5299 5299 5299 5300
5377 5377 5379 5386 5374 5388 5404 5368 5368 5364 5360 5355 5360 5362 5358 5354 5347 5341 5338 5336 5333 5329 5325 5322 5318 5314 5311 5307 5304 5302 5300 5298 5296 5295 5293 5291 5290 5289 5288 5287 5288 5288 5288 5289
5370 5371 5374 5375 5384 5396 5385 5360 5351 5352 5360 5353 5347 5348 5343 5333 5333 5338 5330 5325 5322 5318 5315 5311 5308 5304 5300 5297 5294 5292 5291 5289 5287 5286 5284 5282 5280 5278 5277 5277 5277 5276 5276 5277
5351 5353 5363 5361 5373 5389 5387 5350 5336 5342 5358 5349 5338 5336 5331 5326 5344 5346 5322 5314 5310 5306 5302 5299 5296 5293 5290 5288 5285 5283 5282 5280 5278 5276 5274 5272 5270 5268 5267 5266 5265 5265 5265 5266
5347 5346 5350 5356 5362 5376 5354 5328 5327 5352 5364 5338 5330 5326 5320 5322 5326 5318 5307 5302 5298 5294 5291 5288 5285 5283 5280 5278 5275 5274 5273 5271 5269 5266 5264 5262 5260 5258 5257 5256 5254 5254 5254 5254
5357 5354 5345 5347 5352 5366 5329 5322 5335 5345 5329 5322 5319 5315 5310 5307 5301 5297 5294 5290 5286 5283 5280 5277 5275 5273 5270 5268 5265 5264 5263 5261 5258 5255 5253 5251 5249 5248 5247 5245 5244 5243 5243 5243
5342 5347 5349 5346 5356 5339 5321 5323 5320 5313 5312 5311 5308 5302 5297 5292 5290 5286 5283 5279 5276 5273 5270 5267 5264 5262 5260 5258 5256 5255 5254 5250 5248 5245 5243 5241 5239 5237 5236 5235 5234 5233 5232 5233
5329 5316 5323 5324 5332 5323 5314 5310 5305 5301 5299 5298 5294 5290 5286 5283 5280 5276 5273 5270 5267 5263 5259 5256 5254 5252 5251 5248 5246 5245 5243 5240 5238 5236 5234 5232 5230 5228 5227 5225 5225 5224 5223 5222
5326 5309 5311 5315 5318 5312 5310 5304 5299 5292 5288 5284 5281 5278 5276 5273 5270 5267 5264 5261 5258 5255 5251 5247 5244 5243 5241 5239 5237 5235 5232 5230 5228 5226 5224 5222 5221 5219 5218 5217 5215 5214 5213 5212
5308 5303 5310 5323 5314 5306 5307 5299 5290 5283 5280 5276 5272 5269 5266 5263 5260 5258 5255 5252 5248 5245 5242 5239 5236 5234 5233 5230 5228 5226 5223 5221 5219 5218 5216 5214 5212 5210 5209 5208 5207 5205 5203 5203